COSMOS 2271

Satellite information

Favourite Embed

Satellite Type and Status

PAYLOADIN ORBIT

Key statistics

Satellite COSMOS 2271 at a glance.

Uptime

11480

Days in orbit

Revolutions

≈ 12.6

Per day

Orbit

LEO

Low Earth Orbit

Inclination

82.6

Latest

Satellite identification and parameters

Extended collection of information and parameters for COSMOS 2271.

Object identification

Identified? True

Debris? False

Object name: COSMOS 2271

International designator: 1994-011D

Object number (NORAD): 23002

Object ID (CCSDS): 23002

Country: COMMONWEALTH OF INDEPENDENT STATES (CIS)

Current information (Y/N): Y

RCS size: MEDIUM

Orbital parameters

Period: 113.968 minutes

Inclination: 82.5669 deg

SMA: 7786.625 km

Apoapsis: 1412.953 km

Periapsis: 1404.026 km

RAAN: 151.7419 deg

Eccentricy: 0.0005732

Argument of periapsis: 226.7143 deg

Mean anomaly: 133.3471 deg

Mean motion: 12.63510601 rev/day

Mean motion (dot): 0.00000032 rev/day2

B* drag term: 0.00012038 1/REarth

Two-line elements (TLE)

Creation date: July 17, 2025, 8:16 p.m.

Reference frame: TEME

Reference center: EARTH

Epoch: July 17, 2025, 9:08 a.m. UTC

TLE line 0: 0 COSMOS 2271

TLE line 1: 1 23002U 94011D 25198.38084763 .00000032 00000-0 12038-3 0 9998

TLE line 2: 2 23002 82.5669 151.7419 0005732 226.7143 133.3471 12.63510601449380

Live tracking on map

Real-time ground track for satellite COSMOS 2271.

In-orbit conjunctions

A list of the most updated potential collisions computed for object COSMOS 2271.

Target Orbit TCA Probability of collision Miss distance Type
OPS 2644 DEB LEO 2024-12-11 04:48:45 0.0001017152 244.0 (m) DEBRIS

Associated space launch

Second generation store-dump military communications satellites

COSMOS 2271 was lifted into orbit during the mission ‘Tsiklon-3 | Strela-3 101 to 106’, on board a Tsiklon-3 space rocket.

The launch took place on Feb. 12, 1994, 8:54 a.m. from 32/1.

For more information about the launch, click the button.

Launch to space Tsiklon-3 | Strela-3 101 to 106
Tsiklon-3 | Strela-3 101 to 106

Agency: N/A

Status: Launch Successful

Launch date: Feb. 12, 1994, 8:54 a.m. UTC

Rocket: Tsiklon-3

Launch pad: 32/1

Location: Plesetsk Cosmodrome, Russian Federation

...

Latest news about this satellite

There are no fresh news available about this satellite. Check back as we update our databases every day.


Newsletter sign-up

Weekly statistics, charts and insights to help you stay on top of the space industry.